| time (UTC) | temp C | wind direction | speed KPH | gust KPH | rain 1hr cm | rain 24hr cm | rain mn cm | humidity % | barometer mb |
| 20260902185102 | 19 | 31 | 4.8 | 8.0 | 0.00 | 0.00 | 0.00 | 25 | 1021.9 |
| 20260902184609 | 18 | 54 | 1.6 | 6.4 | 0.00 | 0.00 | 0.00 | 24 | 1022.1 |
| 20260902184059 | 18 | 305 | 1.6 | 6.4 | 0.00 | 0.00 | 0.00 | 25 | 1022.0 |
| 20260902183558 | 17 | 0 | 0.0 | 6.4 | 0.00 | 0.00 | 0.00 | 28 | 1022.1 |
| 20260902183114 | 17 | 26 | 3.2 | 8.0 | 0.00 | 0.00 | 0.00 | 26 | 1022.2 |
| 20260902182558 | 18 | 0 | 1.6 | 8.0 | 0.00 | 0.00 | 0.00 | 26 | 1022.1 |
| 20260902182101 | 18 | 356 | 0.0 | 4.8 | 0.00 | 0.00 | 0.00 | 27 | 1022.3 |
| 20260902181607 | 18 | 305 | 0.0 | 6.4 | 0.00 | 0.00 | 0.00 | 27 | 1022.3 |
| 20260902181057 | 17 | 0 | 0.0 | 6.4 | 0.00 | 0.00 | 0.00 | 28 | 1022.5 |
| 20260902180557 | 17 | 0 | 1.6 | 6.4 | 0.00 | 0.00 | 0.00 | 30 | 1022.5 |
| 20260902180109 | 17 | 295 | 1.6 | 3.2 | 0.00 | 0.00 | 0.00 | 28 | 1022.6 |
| 20260902175559 | 17 | 0 | 0.0 | 4.8 | 0.00 | 0.00 | 0.00 | 30 | 1022.5 |
| 20260902175059 | 16 | 323 | 0.0 | 4.8 | 0.00 | 0.00 | 0.00 | 30 | 1022.5 |
| 20260902174610 | 16 | 0 | 0.0 | 3.2 | 0.00 | 0.00 | 0.00 | 32 | 1022.5 |
| 20260902174058 | 15 | 51 | 0.0 | 6.4 | 0.00 | 0.00 | 0.00 | 31 | 1022.5 |
| 20260902173558 | 15 | 321 | 1.6 | 6.4 | 0.00 | 0.00 | 0.00 | 34 | 1022.5 |
| 20260902173106 | 14 | 53 | 1.6 | 6.4 | 0.00 | 0.00 | 0.00 | 35 | 1022.6 |
| 20260902172558 | 13 | 0 | 0.0 | 4.8 | 0.00 | 0.00 | 0.00 | 36 | 1022.6 |
| 20260902172100 | 13 | 88 | 0.0 | 4.8 | 0.00 | 0.00 | 0.00 | 37 | 1022.6 |
| 20260902171610 | 13 | 51 | 0.0 | 3.2 | 0.00 | 0.00 | 0.00 | 38 | 1022.5 |
| 20260902171059 | 13 | 65 | 0.0 | 3.2 | 0.00 | 0.00 | 0.00 | 38 | 1022.5 |
| 20260902170558 | 13 | 53 | 0.0 | 3.2 | 0.00 | 0.00 | 0.00 | 37 | 1022.5 |
| 20260902170117 | 13 | 109 | 0.0 | 3.2 | 0.00 | 0.00 | 0.00 | 37 | 1022.4 |
| 20260902165559 | 13 | 0 | 1.6 | 3.2 | 0.00 | 0.00 | 0.00 | 36 | 1022.5 |
| 20260902165101 | 13 | 93 | 0.0 | 3.2 | 0.00 | 0.00 | 0.00 | 36 | 1022.5 |
| 20260902164624 | 13 | 0 | 0.0 | 4.8 | 0.00 | 0.00 | 0.00 | 37 | 1022.4 |
| 20260902164058 | 13 | 81 | 0.0 | 4.8 | 0.00 | 0.00 | 0.00 | 37 | 1022.6 |
| 20260902163600 | 13 | 81 | 3.2 | 4.8 | 0.00 | 0.00 | 0.00 | 36 | 1022.4 |
| 20260902163109 | 13 | 63 | 0.0 | 3.2 | 0.00 | 0.00 | 0.00 | 37 | 1022.5 |
| 20260902162602 | 13 | 89 | 0.0 | 3.2 | 0.00 | 0.00 | 0.00 | 37 | 1022.5 |
| 20260902162059 | 12 | 127 | 0.0 | 1.6 | 0.00 | 0.00 | 0.00 | 39 | 1022.7 |
| 20260902161616 | 12 | 0 | 0.0 | 4.8 | 0.00 | 0.00 | 0.00 | 38 | 1022.8 |
| 20260902161059 | 12 | 0 | 0.0 | 4.8 | 0.00 | 0.00 | 0.00 | 38 | 1022.7 |
| 20260902160558 | 12 | 49 | 1.6 | 4.8 | 0.00 | 0.00 | 0.00 | 39 | 1022.6 |
| 20260902155558 | 12 | 49 | 1.6 | 4.8 | 0.00 | 0.00 | 0.00 | 38 | 1022.5 |
| 20260902155058 | 13 | 57 | 1.6 | 4.8 | 0.00 | 0.00 | 0.00 | 37 | 1022.4 |
| 20260902154602 | 13 | 63 | 0.0 | 4.8 | 0.00 | 0.00 | 0.00 | 38 | 1022.3 |
| 20260902154058 | 13 | 224 | 1.6 | 4.8 | 0.00 | 0.00 | 0.00 | 37 | 1022.6 |
| 20260902153558 | 12 | 0 | 0.0 | 4.8 | 0.00 | 0.00 | 0.00 | 38 | 1022.6 |
| 20260902153117 | 12 | 251 | 0.0 | 4.8 | 0.00 | 0.00 | 0.00 | 40 | 1022.5 |
| 20260902152557 | 11 | 0 | 0.0 | 3.2 | 0.00 | 0.00 | 0.00 | 41 | 1022.4 |
| 20260902152057 | 11 | 134 | 0.0 | 3.2 | 0.00 | 0.00 | 0.00 | 46 | 1022.4 |
| 20260902151608 | 11 | 115 | 0.0 | 3.2 | 0.00 | 0.00 | 0.00 | 48 | 1022.4 |
| 20260902151059 | 10 | 0 | 0.0 | 1.6 | 0.00 | 0.00 | 0.00 | 49 | 1022.2 |
| 20260902150558 | 10 | 0 | 0.0 | 1.6 | 0.00 | 0.00 | 0.00 | 51 | 1022.3 |
| 20260902150106 | 10 | 135 | 0.0 | 1.6 | 0.00 | 0.00 | 0.00 | 50 | 1022.3 |
| 20260902145558 | 9 | 0 | 0.0 | 1.6 | 0.00 | 0.00 | 0.00 | 50 | 1022.3 |
| 20260902145058 | 8 | 0 | 0.0 | 1.6 | 0.00 | 0.00 | 0.00 | 54 | 1022.3 |
| 20260902144627 | 8 | 94 | 0.0 | 1.6 | 0.00 | 0.00 | 0.00 | 52 | 1022.3 |
| 20260902144058 | 7 | 0 | 0.0 | 0.0 | 0.00 | 0.00 | 0.00 | 55 | 1022.4 |
| 20260902143559 | 7 | 0 | 0.0 | 1.6 | 0.00 | 0.00 | 0.00 | 55 | 1022.3 |
| 20260902143115 | 6 | 0 | 0.0 | 1.6 | 0.00 | 0.00 | 0.00 | 59 | 1022.1 |
| 20260902142559 | 5 | 0 | 0.0 | 4.8 | 0.00 | 0.00 | 0.00 | 60 | 1022.0 |
| 20260902142059 | 5 | 0 | 0.0 | 4.8 | 0.00 | 0.00 | 0.00 | 59 | 1022.0 |
| 20260902141605 | 5 | 0 | 0.0 | 0.0 | 0.00 | 0.00 | 0.00 | 58 | 1021.9 |
| 20260902141058 | 5 | 0 | 0.0 | 1.6 | 0.00 | 0.00 | 0.00 | 58 | 1021.8 |
| 20260902140601 | 5 | 0 | 0.0 | 1.6 | 0.00 | 0.00 | 0.00 | 57 | 1021.7 |
| 20260902140105 | 5 | 171 | 0.0 | 1.6 | 0.00 | 0.00 | 0.00 | 57 | 1021.8 |
| 20260902135558 | 5 | 0 | 0.0 | 3.2 | 0.00 | 0.00 | 0.00 | 57 | 1021.8 |
| 20260902135058 | 4 | 0 | 0.0 | 3.2 | 0.00 | 0.00 | 0.00 | 56 | 1022.0 |
| 20260902134605 | 4 | 185 | 0.0 | 3.2 | 0.00 | 0.00 | 0.00 | 55 | 1022.0 |
| 20260902134058 | 4 | 0 | 0.0 | 1.6 | 0.00 | 0.00 | 0.00 | 55 | 1021.7 |
| 20260902133558 | 4 | 165 | 0.0 | 3.2 | 0.00 | 0.00 | 0.00 | 54 | 1022.0 |
| 20260902133103 | 4 | 0 | 0.0 | 3.2 | 0.00 | 0.00 | 0.00 | 54 | 1021.7 |
| 20260902132558 | 4 | 0 | 0.0 | 3.2 | 0.00 | 0.00 | 0.00 | 53 | 1021.6 |
| 20260902132058 | 4 | 0 | 0.0 | 3.2 | 0.00 | 0.00 | 0.00 | 54 | 1021.4 |
| 20260902131607 | 4 | 162 | 0.0 | 3.2 | 0.00 | 0.00 | 0.00 | 52 | 1021.5 |
| 20260902131151 | 5 | 0 | 1.6 | 3.2 | 0.00 | 0.00 | 0.00 | 52 | 1021.4 |
| 20260902130559 | 5 | 0 | 0.0 | 3.2 | 0.00 | 0.00 | 0.00 | 49 | 1021.1 |
| 20260902130104 | 6 | 255 | 0.0 | 3.2 | 0.00 | 0.00 | 0.00 | 48 | 1021.3 |
| 20260902125558 | 6 | 58 | 0.0 | 4.8 | 0.00 | 0.00 | 0.00 | 51 | 1021.1 |
| 20260902125058 | 5 | 115 | 0.0 | 4.8 | 0.00 | 0.00 | 0.00 | 48 | 1021.1 |
| 20260902124610 | 5 | 233 | 0.0 | 3.2 | 0.00 | 0.00 | 0.00 | 49 | 1021.3 |
| 20260902124100 | 5 | 0 | 0.0 | 3.2 | 0.00 | 0.00 | 0.00 | 49 | 1021.2 |
| 20260902123559 | 6 | 188 | 0.0 | 3.2 | 0.00 | 0.00 | 0.00 | 49 | 1021.3 |
| 20260902123104 | 5 | 54 | 0.0 | 3.2 | 0.00 | 0.00 | 0.00 | 51 | 1021.3 |
| 20260902122600 | 5 | 163 | 0.0 | 1.6 | 0.00 | 0.00 | 0.00 | 50 | 1021.2 |
| 20260902122058 | 5 | 140 | 0.0 | 1.6 | 0.00 | 0.00 | 0.00 | 49 | 1021.2 |
| 20260902121613 | 5 | 165 | 0.0 | 4.8 | 0.00 | 0.00 | 0.00 | 49 | 1021.3 |
| 20260902121058 | 4 | 0 | 1.6 | 4.8 | 0.00 | 0.00 | 0.00 | 48 | 1021.3 |
| 20260902120558 | 5 | 174 | 0.0 | 4.8 | 0.00 | 0.00 | 0.00 | 48 | 1021.3 |
| 20260902120111 | 5 | 0 | 0.0 | 6.4 | 0.00 | 0.00 | 0.00 | 47 | 1021.2 |
| 20260902115558 | 5 | 148 | 1.6 | 6.4 | 0.00 | 0.00 | 0.00 | 48 | 1021.0 |
| 20260902115058 | 5 | 162 | 0.0 | 3.2 | 0.00 | 0.00 | 0.00 | 47 | 1021.0 |
| 20260902114619 | 5 | 236 | 1.6 | 3.2 | 0.00 | 0.00 | 0.00 | 46 | 1020.9 |
| 20260902114058 | 5 | 162 | 0.0 | 3.2 | 0.00 | 0.00 | 0.00 | 45 | 1020.8 |
| 20260902113557 | 5 | 158 | 0.0 | 3.2 | 0.00 | 0.00 | 0.00 | 46 | 1020.6 |
| 20260902113104 | 5 | 0 | 1.6 | 6.4 | 0.00 | 0.00 | 0.00 | 47 | 1020.6 |
| 20260902112559 | 4 | 0 | 1.6 | 6.4 | 0.00 | 0.00 | 0.00 | 47 | 1020.5 |
| 20260902112100 | 5 | 0 | 0.0 | 1.6 | 0.00 | 0.00 | 0.00 | 46 | 1020.7 |
| 20260902111605 | 4 | 154 | 0.0 | 1.6 | 0.00 | 0.00 | 0.00 | 46 | 1020.5 |
| 20260902111058 | 5 | 0 | 0.0 | 1.6 | 0.00 | 0.00 | 0.00 | 46 | 1020.5 |
| 20260902110600 | 5 | 0 | 0.0 | 4.8 | 0.00 | 0.00 | 0.00 | 45 | 1020.5 |
| 20260902110110 | 5 | 0 | 1.6 | 4.8 | 0.00 | 0.00 | 0.00 | 45 | 1020.5 |
| 20260902105602 | 5 | 155 | 0.0 | 3.2 | 0.00 | 0.00 | 0.00 | 44 | 1020.5 |
| 20260902105058 | 5 | 255 | 0.0 | 3.2 | 0.00 | 0.00 | 0.00 | 45 | 1020.6 |
| 20260902104605 | 5 | 191 | 0.0 | 3.2 | 0.00 | 0.00 | 0.00 | 44 | 1020.6 |
| 20260902104058 | 5 | 206 | 0.0 | 3.2 | 0.00 | 0.00 | 0.00 | 44 | 1020.3 |
| 20260902103601 | 5 | 175 | 0.0 | 1.6 | 0.00 | 0.00 | 0.00 | 43 | 1020.4 |
| 20260902103120 | 6 | 0 | 0.0 | 1.6 | 0.00 | 0.00 | 0.00 | 42 | 1020.3 |
| 20260902102559 | 6 | 0 | 0.0 | 3.2 | 0.00 | 0.00 | 0.00 | 42 | 1020.2 |
| 20260902102059 | 6 | 0 | 0.0 | 4.8 | 0.00 | 0.00 | 0.00 | 41 | 1020.2 |
| 20260902101601 | 7 | 227 | 0.0 | 4.8 | 0.00 | 0.00 | 0.00 | 41 | 1020.2 |
| 20260902101058 | 6 | 98 | 1.6 | 4.8 | 0.00 | 0.00 | 0.00 | 41 | 1020.1 |
| 20260902100558 | 6 | 0 | 0.0 | 3.2 | 0.00 | 0.00 | 0.00 | 41 | 1020.2 |
| 20260902100101 | 6 | 0 | 0.0 | 3.2 | 0.00 | 0.00 | 0.00 | 42 | 1020.4 |
| 20260902095601 | 6 | 182 | 0.0 | 1.6 | 0.00 | 0.00 | 0.00 | 42 | 1020.2 |
| 20260902095058 | 7 | 0 | 0.0 | 8.0 | 0.00 | 0.00 | 0.00 | 40 | 1020.4 |
| 20260902094603 | 7 | 0 | 1.6 | 8.0 | 0.00 | 0.00 | 0.00 | 40 | 1020.4 |
| 20260902094059 | 6 | 118 | 4.8 | 8.0 | 0.00 | 0.00 | 0.00 | 42 | 1020.3 |
| 20260902093557 | 7 | 128 | 0.0 | 4.8 | 0.00 | 0.00 | 0.00 | 42 | 1020.5 |
| 20260902093111 | 7 | 249 | 0.0 | 4.8 | 0.00 | 0.00 | 0.00 | 39 | 1020.6 |
| 20260902092558 | 6 | 63 | 1.6 | 3.2 | 0.00 | 0.00 | 0.00 | 41 | 1020.5 |
| 20260902092101 | 6 | 147 | 0.0 | 3.2 | 0.00 | 0.00 | 0.00 | 43 | 1020.6 |
| 20260902091607 | 7 | 246 | 0.0 | 4.8 | 0.00 | 0.00 | 0.00 | 42 | 1020.6 |
| 20260902091100 | 7 | 133 | 0.0 | 4.8 | 0.00 | 0.00 | 0.00 | 42 | 1020.5 |
| 20260902090558 | 6 | 153 | 0.0 | 4.8 | 0.00 | 0.00 | 0.00 | 44 | 1020.7 |
| 20260902090105 | 6 | 0 | 0.0 | 4.8 | 0.00 | 0.00 | 0.00 | 43 | 1020.8 |
| 20260902085558 | 7 | 0 | 1.6 | 4.8 | 0.00 | 0.00 | 0.00 | 44 | 1020.7 |
| 20260902085059 | 6 | 118 | 1.6 | 4.8 | 0.00 | 0.00 | 0.00 | 45 | 1020.6 |
| 20260902084605 | 6 | 0 | 0.0 | 1.6 | 0.00 | 0.00 | 0.00 | 46 | 1020.6 |
| 20260902084059 | 6 | 0 | 0.0 | 3.2 | 0.00 | 0.00 | 0.00 | 45 | 1020.5 |
| 20260902083558 | 6 | 0 | 0.0 | 3.2 | 0.00 | 0.00 | 0.00 | 45 | 1020.7 |
| 20260902083104 | 6 | 0 | 0.0 | 3.2 | 0.00 | 0.00 | 0.00 | 45 | 1020.8 |
| 20260902082558 | 6 | 0 | 0.0 | 3.2 | 0.00 | 0.00 | 0.00 | 44 | 1020.9 |
| 20260902082058 | 7 | 217 | 0.0 | 3.2 | 0.00 | 0.00 | 0.00 | 44 | 1020.8 |
| 20260902081609 | 7 | 0 | 0.0 | 3.2 | 0.00 | 0.00 | 0.00 | 44 | 1020.9 |
| 20260902081058 | 7 | 0 | 0.0 | 3.2 | 0.00 | 0.00 | 0.00 | 45 | 1020.7 |
| 20260902080559 | 7 | 255 | 0.0 | 1.6 | 0.00 | 0.00 | 0.00 | 42 | 1020.7 |
| 20260902080105 | 7 | 207 | 0.0 | 3.2 | 0.00 | 0.00 | 0.00 | 42 | 1020.6 |
| 20260902075557 | 8 | 0 | 0.0 | 3.2 | 0.00 | 0.00 | 0.00 | 40 | 1020.8 |
| 20260902075058 | 8 | 248 | 0.0 | 6.4 | 0.00 | 0.00 | 0.00 | 40 | 1020.9 |
| 20260902074614 | 8 | 77 | 3.2 | 9.7 | 0.00 | 0.00 | 0.00 | 39 | 1020.6 |
| 20260902074058 | 8 | 93 | 4.8 | 9.7 | 0.00 | 0.00 | 0.00 | 40 | 1020.8 |
| 20260902073602 | 8 | 119 | 0.0 | 6.4 | 0.00 | 0.00 | 0.00 | 41 | 1020.7 |
| 20260902073109 | 8 | 0 | 1.6 | 8.0 | 0.00 | 0.00 | 0.00 | 40 | 1020.8 |
| 20260902072557 | 8 | 95 | 1.6 | 8.0 | 0.00 | 0.00 | 0.00 | 42 | 1020.6 |
| 20260902072058 | 8 | 143 | 0.0 | 6.4 | 0.00 | 0.00 | 0.00 | 43 | 1020.8 |
| 20260902071604 | 8 | 110 | 1.6 | 6.4 | 0.00 | 0.00 | 0.00 | 44 | 1020.6 |
| 20260902071058 | 8 | 161 | 3.2 | 8.0 | 0.00 | 0.00 | 0.00 | 44 | 1020.8 |
| 20260902070557 | 8 | 0 | 0.0 | 9.7 | 0.00 | 0.00 | 0.00 | 44 | 1020.6 |
| 20260902070107 | 8 | 55 | 4.8 | 9.7 | 0.00 | 0.00 | 0.00 | 45 | 1020.8 |
| 20260902065558 | 7 | 82 | 0.0 | 4.8 | 0.00 | 0.00 | 0.00 | 46 | 1020.6 |
| 20260902065100 | 8 | 0 | 0.0 | 8.0 | 0.00 | 0.00 | 0.00 | 46 | 1020.6 |
| 20260902064603 | 8 | 0 | 4.8 | 9.7 | 0.00 | 0.00 | 0.00 | 45 | 1020.6 |
| 20260902064059 | 9 | 0 | 0.0 | 12.9 | 0.00 | 0.00 | 0.00 | 44 | 1020.6 |
| 20260902063558 | 9 | 77 | 6.4 | 12.9 | 0.00 | 0.00 | 0.00 | 45 | 1020.4 |
| 20260902063104 | 8 | 63 | 4.8 | 9.7 | 0.00 | 0.00 | 0.00 | 45 | 1020.4 |
| 20260902062558 | 8 | 136 | 1.6 | 6.4 | 0.00 | 0.00 | 0.00 | 47 | 1020.6 |
| 20260902062058 | 8 | 0 | 1.6 | 4.8 | 0.00 | 0.00 | 0.00 | 48 | 1020.4 |
| 20260902061604 | 8 | 0 | 0.0 | 3.2 | 0.00 | 0.00 | 0.00 | 46 | 1020.6 |
| 20260902061059 | 8 | 0 | 0.0 | 3.2 | 0.00 | 0.00 | 0.00 | 45 | 1020.5 |
| 20260902060600 | 8 | 49 | 0.0 | 4.8 | 0.00 | 0.00 | 0.00 | 46 | 1020.1 |
| 20260902060116 | 8 | 0 | 0.0 | 4.8 | 0.00 | 0.00 | 0.00 | 47 | 1020.3 |
| 20260902055558 | 8 | 0 | 0.0 | 4.8 | 0.00 | 0.00 | 0.00 | 47 | 1020.2 |
| 20260902055059 | 8 | 0 | 1.6 | 4.8 | 0.00 | 0.00 | 0.00 | 48 | 1020.1 |
| 20260902054603 | 9 | 0 | 0.0 | 3.2 | 0.00 | 0.00 | 0.00 | 48 | 1020.2 |
| 20260902054058 | 8 | 66 | 0.0 | 4.8 | 0.00 | 0.00 | 0.00 | 50 | 1020.2 |
| 20260902053558 | 8 | 0 | 0.0 | 4.8 | 0.00 | 0.00 | 0.00 | 49 | 1020.4 |
| 20260902053107 | 8 | 0 | 0.0 | 4.8 | 0.00 | 0.00 | 0.00 | 48 | 1020.5 |
| 20260902052557 | 9 | 183 | 0.0 | 4.8 | 0.00 | 0.00 | 0.00 | 47 | 1020.4 |
| 20260902052057 | 10 | 0 | 1.6 | 4.8 | 0.00 | 0.00 | 0.00 | 46 | 1020.6 |
| 20260902051606 | 10 | 133 | 0.0 | 8.0 | 0.00 | 0.00 | 0.00 | 45 | 1020.6 |
| 20260902051059 | 11 | 0 | 0.0 | 8.0 | 0.00 | 0.00 | 0.00 | 44 | 1020.6 |
| 20260902050600 | 10 | 0 | 4.8 | 8.0 | 0.00 | 0.00 | 0.00 | 44 | 1020.7 |
| 20260902050108 | 10 | 163 | 0.0 | 9.7 | 0.00 | 0.00 | 0.00 | 45 | 1020.9 |
| 20260902045557 | 10 | 0 | 4.8 | 9.7 | 0.00 | 0.00 | 0.00 | 44 | 1020.9 |
| 20260902045058 | 10 | 114 | 0.0 | 3.2 | 0.00 | 0.00 | 0.00 | 46 | 1020.9 |
| 20260902044605 | 11 | 254 | 0.0 | 1.6 | 0.00 | 0.00 | 0.00 | 47 | 1020.9 |
| 20260902044058 | 11 | 261 | 0.0 | 3.2 | 0.00 | 0.00 | 0.00 | 46 | 1020.9 |
| 20260902043558 | 11 | 0 | 0.0 | 3.2 | 0.00 | 0.00 | 0.00 | 44 | 1020.9 |
| 20260902043113 | 11 | 68 | 0.0 | 3.2 | 0.00 | 0.00 | 0.00 | 45 | 1020.8 |
| 20260902042603 | 11 | 261 | 0.0 | 6.4 | 0.00 | 0.00 | 0.00 | 46 | 1020.9 |
| 20260902042058 | 11 | 0 | 0.0 | 6.4 | 0.00 | 0.00 | 0.00 | 46 | 1020.7 |
| 20260902041605 | 11 | 220 | 0.0 | 8.0 | 0.00 | 0.00 | 0.00 | 45 | 1020.6 |
| 20260902041057 | 12 | 0 | 0.0 | 9.7 | 0.00 | 0.00 | 0.00 | 45 | 1020.6 |
| 20260902040559 | 12 | 0 | 0.0 | 9.7 | 0.00 | 0.00 | 0.00 | 44 | 1020.6 |
| 20260902040108 | 12 | 0 | 1.6 | 9.7 | 0.00 | 0.00 | 0.00 | 41 | 1020.5 |
| 20260902035557 | 12 | 310 | 0.0 | 14.5 | 0.00 | 0.00 | 0.00 | 39 | 1020.3 |
| 20260902035059 | 12 | 50 | 3.2 | 16.1 | 0.00 | 0.00 | 0.00 | 37 | 1020.3 |
| 20260902034608 | 13 | 53 | 4.8 | 19.3 | 0.00 | 0.00 | 0.00 | 39 | 1020.2 |
| 20260902034058 | 13 | 17 | 3.2 | 30.6 | 0.00 | 0.00 | 0.00 | 37 | 1020.1 |
| 20260902033558 | 13 | 47 | 14.5 | 30.6 | 0.00 | 0.00 | 0.00 | 34 | 1019.9 |
| 20260902033108 | 14 | 192 | 3.2 | 9.7 | 0.00 | 0.00 | 0.00 | 33 | 1019.7 |
| 20260902032558 | 15 | 0 | 0.0 | 14.5 | 0.00 | 0.00 | 0.00 | 26 | 1019.5 |
| 20260902032058 | 16 | 234 | 4.8 | 17.7 | 0.00 | 0.00 | 0.00 | 18 | 1019.4 |
| 20260902031608 | 16 | 182 | 6.4 | 22.5 | 0.00 | 0.00 | 0.00 | 18 | 1019.5 |
| 20260902031101 | 16 | 155 | 11.3 | 30.6 | 0.00 | 0.00 | 0.00 | 16 | 1019.4 |
| 20260902030558 | 17 | 144 | 16.1 | 30.6 | 0.00 | 0.00 | 0.00 | 16 | 1019.5 |
| 20260902025558 | 17 | 129 | 16.1 | 25.7 | 0.00 | 0.00 | 0.00 | 16 | 1019.4 |
| 20260902025101 | 17 | 134 | 9.7 | 29.0 | 0.00 | 0.00 | 0.00 | 16 | 1019.4 |
| 20260902024611 | 17 | 103 | 17.7 | 29.0 | 0.00 | 0.00 | 0.00 | 16 | 1019.3 |
| 20260902024100 | 17 | 150 | 12.9 | 32.2 | 0.00 | 0.00 | 0.00 | 16 | 1019.3 |
| 20260902023558 | 17 | 150 | 16.1 | 32.2 | 0.00 | 0.00 | 0.00 | 16 | 1019.3 |
| 20260902023106 | 17 | 157 | 14.5 | 29.0 | 0.00 | 0.00 | 0.00 | 16 | 1019.3 |
| 20260902022558 | 17 | 131 | 16.1 | 29.0 | 0.00 | 0.00 | 0.00 | 16 | 1019.0 |
| 20260902022101 | 17 | 149 | 6.4 | 25.7 | 0.00 | 0.00 | 0.00 | 15 | 1019.0 |
| 20260902021604 | 17 | 91 | 11.3 | 25.7 | 0.00 | 0.00 | 0.00 | 16 | 1019.1 |
| 20260902021058 | 17 | 124 | 14.5 | 25.7 | 0.00 | 0.00 | 0.00 | 16 | 1019.1 |
| 20260902020558 | 17 | 136 | 8.0 | 17.7 | 0.00 | 0.00 | 0.00 | 16 | 1019.2 |
| 20260902020104 | 17 | 135 | 8.0 | 25.7 | 0.00 | 0.00 | 0.00 | 15 | 1019.1 |
| 20260902015557 | 18 | 164 | 14.5 | 25.7 | 0.00 | 0.00 | 0.00 | 15 | 1018.9 |
| 20260902015057 | 18 | 148 | 11.3 | 32.2 | 0.00 | 0.00 | 0.00 | 15 | 1018.8 |
| 20260902014604 | 18 | 146 | 9.7 | 32.2 | 0.00 | 0.00 | 0.00 | 14 | 1018.9 |
| 20260902014101 | 18 | 69 | 16.1 | 32.2 | 0.00 | 0.00 | 0.00 | 14 | 1018.9 |
| 20260902013558 | 18 | 139 | 9.7 | 19.3 | 0.00 | 0.00 | 0.00 | 14 | 1018.9 |
| 20260902013102 | 19 | 96 | 6.4 | 9.7 | 0.00 | 0.00 | 0.00 | 15 | 1018.9 |
| 20260902012558 | 19 | 162 | 0.0 | 20.9 | 0.00 | 0.00 | 0.00 | 15 | 1019.0 |
| 20260902012057 | 19 | 58 | 8.0 | 20.9 | 0.00 | 0.00 | 0.00 | 14 | 1018.9 |
| 20260902011605 | 20 | 184 | 9.7 | 19.3 | 0.00 | 0.00 | 0.00 | 13 | 1019.2 |
| 20260902011058 | 20 | 199 | 1.6 | 11.3 | 0.00 | 0.00 | 0.00 | 14 | 1019.0 |
| 20260902010558 | 20 | 0 | 4.8 | 11.3 | 0.00 | 0.00 | 0.00 | 13 | 1019.0 |
| 20260902010105 | 20 | 160 | 3.2 | 20.9 | 0.00 | 0.00 | 0.00 | 13 | 1019.1 |
| 20260902005555 | 20 | 259 | 1.6 | 20.9 | 0.00 | 0.00 | 0.00 | 13 | 1019.2 |
| 20260902005057 | 20 | 141 | 6.4 | 20.9 | 0.00 | 0.00 | 0.00 | 12 | 1019.3 |
| 20260902004603 | 20 | 302 | 6.4 | 19.3 | 0.00 | 0.00 | 0.00 | 13 | 1019.2 |
| 20260902004058 | 20 | 160 | 0.0 | 27.4 | 0.00 | 0.00 | 0.00 | 15 | 1019.4 |
| 20260902003600 | 20 | 149 | 9.7 | 27.4 | 0.00 | 0.00 | 0.00 | 12 | 1019.3 |
| 20260902003104 | 20 | 142 | 9.7 | 19.3 | 0.00 | 0.00 | 0.00 | 13 | 1019.4 |
| 20260902002557 | 21 | 131 | 4.8 | 14.5 | 0.00 | 0.00 | 0.00 | 12 | 1019.3 |
| 20260902002058 | 21 | 158 | 1.6 | 16.1 | 0.00 | 0.00 | 0.00 | 14 | 1019.4 |
| 20260902001607 | 21 | 229 | 6.4 | 27.4 | 0.00 | 0.00 | 0.00 | 13 | 1019.3 |
| 20260902001058 | 21 | 219 | 9.7 | 27.4 | 0.00 | 0.00 | 0.00 | 14 | 1019.3 |
| 20260902000558 | 21 | 136 | 9.7 | 24.1 | 0.00 | 0.00 | 0.00 | 13 | 1019.3 |
| 20260901235559 | 21 | 129 | 4.8 | 25.7 | 0.00 | 0.00 | 0.00 | 13 | 1019.4 |
| 20260901235100 | 21 | 158 | 3.2 | 20.9 | 0.00 | 0.00 | 0.00 | 14 | 1019.7 |
| 20260901234616 | 21 | 231 | 6.4 | 20.9 | 0.00 | 0.00 | 0.00 | 13 | 1019.7 |
| 20260901234055 | 21 | 160 | 6.4 | 20.9 | 0.00 | 0.00 | 0.00 | 13 | 1019.7 |
| 20260901233602 | 21 | 163 | 8.0 | 19.3 | 0.00 | 0.00 | 0.00 | 13 | 1019.7 |
| 20260901233108 | 21 | 226 | 4.8 | 20.9 | 0.00 | 0.00 | 0.00 | 13 | 1019.7 |
| 20260901232558 | 21 | 202 | 6.4 | 27.4 | 0.00 | 0.00 | 0.00 | 13 | 1019.9 |
| 20260901232058 | 21 | 63 | 9.7 | 27.4 | 0.00 | 0.00 | 0.00 | 13 | 1019.7 |
| 20260901231605 | 21 | 212 | 8.0 | 27.4 | 0.00 | 0.00 | 0.00 | 13 | 1019.9 |
| 20260901231058 | 22 | 245 | 11.3 | 27.4 | 0.00 | 0.00 | 0.00 | 12 | 1019.9 |
| 20260901230557 | 22 | 256 | 6.4 | 24.1 | 0.00 | 0.00 | 0.00 | 14 | 1019.8 |
| 20260901230105 | 22 | 262 | 14.5 | 24.1 | 0.00 | 0.00 | 0.00 | 13 | 1019.9 |
| 20260901225557 | 22 | 208 | 8.0 | 20.9 | 0.00 | 0.00 | 0.00 | 12 | 1019.9 |
| 20260901225057 | 22 | 223 | 6.4 | 17.7 | 0.00 | 0.00 | 0.00 | 11 | 1019.9 |
| 20260901224605 | 22 | 239 | 6.4 | 17.7 | 0.00 | 0.00 | 0.00 | 12 | 1019.8 |
| 20260901224057 | 22 | 220 | 1.6 | 19.3 | 0.00 | 0.00 | 0.00 | 14 | 1019.7 |
| 20260901223601 | 22 | 162 | 4.8 | 19.3 | 0.00 | 0.00 | 0.00 | 12 | 1019.8 |
| 20260901223105 | 22 | 252 | 8.0 | 19.3 | 0.00 | 0.00 | 0.00 | 11 | 1019.8 |
| 20260901222557 | 22 | 162 | 3.2 | 17.7 | 0.00 | 0.00 | 0.00 | 14 | 1019.7 |
| 20260901222057 | 22 | 217 | 6.4 | 22.5 | 0.00 | 0.00 | 0.00 | 13 | 1019.8 |
| 20260901221608 | 22 | 243 | 4.8 | 22.5 | 0.00 | 0.00 | 0.00 | 14 | 1019.9 |
| 20260901221057 | 23 | 248 | 6.4 | 19.3 | 0.00 | 0.00 | 0.00 | 14 | 1019.9 |
| 20260901220557 | 23 | 207 | 3.2 | 19.3 | 0.00 | 0.00 | 0.00 | 16 | 1019.8 |
| 20260901220118 | 22 | 82 | 4.8 | 14.5 | 0.00 | 0.00 | 0.00 | 16 | 1020.0 |
| 20260901215558 | 22 | 160 | 1.6 | 16.1 | 0.00 | 0.00 | 0.00 | 16 | 1019.9 |
| 20260901215058 | 22 | 0 | 1.6 | 29.0 | 0.00 | 0.00 | 0.00 | 16 | 1019.9 |
| 20260901214606 | 21 | 72 | 6.4 | 29.0 | 0.00 | 0.00 | 0.00 | 16 | 1019.7 |
| 20260901214059 | 21 | 58 | 8.0 | 27.4 | 0.00 | 0.00 | 0.00 | 18 | 1019.8 |
| 20260901213559 | 21 | 70 | 8.0 | 19.3 | 0.00 | 0.00 | 0.00 | 18 | 1019.9 |
| 20260901213112 | 21 | 87 | 9.7 | 22.5 | 0.00 | 0.00 | 0.00 | 19 | 1020.0 |
| 20260901212557 | 21 | 108 | 9.7 | 22.5 | 0.00 | 0.00 | 0.00 | 19 | 1020.0 |
| 20260901212057 | 21 | 59 | 4.8 | 17.7 | 0.00 | 0.00 | 0.00 | 18 | 1020.1 |
| 20260901211604 | 21 | 63 | 3.2 | 19.3 | 0.00 | 0.00 | 0.00 | 19 | 1020.2 |
| 20260901211058 | 21 | 140 | 8.0 | 20.9 | 0.00 | 0.00 | 0.00 | 19 | 1020.3 |
| 20260901210557 | 21 | 53 | 11.3 | 20.9 | 0.00 | 0.00 | 0.00 | 18 | 1020.4 |
| 20260901210104 | 21 | 97 | 4.8 | 32.2 | 0.00 | 0.00 | 0.00 | 20 | 1020.5 |
| 20260901205558 | 20 | 53 | 9.7 | 32.2 | 0.00 | 0.00 | 0.00 | 20 | 1020.5 |
| 20260901205101 | 21 | 53 | 6.4 | 22.5 | 0.00 | 0.00 | 0.00 | 20 | 1020.4 |
| 20260901204605 | 20 | 140 | 11.3 | 22.5 | 0.00 | 0.00 | 0.00 | 20 | 1020.5 |
| 20260901204059 | 20 | 69 | 12.9 | 27.4 | 0.00 | 0.00 | 0.00 | 21 | 1020.5 |
| 20260901203559 | 20 | 252 | 11.3 | 27.4 | 0.00 | 0.00 | 0.00 | 21 | 1020.6 |
| 20260901203111 | 20 | 122 | 11.3 | 30.6 | 0.00 | 0.00 | 0.00 | 23 | 1020.4 |
| 20260901202557 | 20 | 79 | 11.3 | 30.6 | 0.00 | 0.00 | 0.00 | 23 | 1020.5 |
| 20260901202057 | 20 | 47 | 9.7 | 20.9 | 0.00 | 0.00 | 0.00 | 22 | 1020.6 |
| 20260901201605 | 20 | 45 | 11.3 | 25.7 | 0.00 | 0.00 | 0.00 | 22 | 1020.6 |
| 20260901201058 | 20 | 34 | 11.3 | 29.0 | 0.00 | 0.00 | 0.00 | 24 | 1020.5 |
| 20260901200557 | 19 | 37 | 16.1 | 29.0 | 0.00 | 0.00 | 0.00 | 23 | 1020.5 |
| 20260901200106 | 20 | 109 | 11.3 | 29.0 | 0.00 | 0.00 | 0.00 | 27 | 1020.5 |
| 20260901195600 | 20 | 81 | 14.5 | 29.0 | 0.00 | 0.00 | 0.00 | 29 | 1020.6 |
| 20260901195057 | 20 | 165 | 8.0 | 27.4 | 0.00 | 0.00 | 0.00 | 27 | 1020.5 |
| 20260901194607 | 20 | 60 | 11.3 | 27.4 | 0.00 | 0.00 | 0.00 | 27 | 1020.6 |
| 20260901194057 | 20 | 132 | 12.9 | 22.5 | 0.00 | 0.00 | 0.00 | 27 | 1020.7 |
| 20260901193557 | 20 | 64 | 11.3 | 22.5 | 0.00 | 0.00 | 0.00 | 24 | 1020.7 |
| 20260901193116 | 20 | 59 | 9.7 | 22.5 | 0.00 | 0.00 | 0.00 | 27 | 1020.8 |
| 20260901192557 | 20 | 169 | 12.9 | 22.5 | 0.00 | 0.00 | 0.00 | 26 | 1020.8 |
| 20260901192057 | 19 | 50 | 6.4 | 22.5 | 0.00 | 0.00 | 0.00 | 29 | 1020.8 |
| 20260901191606 | 18 | 87 | 9.7 | 22.5 | 0.00 | 0.00 | 0.00 | 31 | 1020.9 |
| 20260901191057 | 18 | 64 | 9.7 | 22.5 | 0.00 | 0.00 | 0.00 | 29 | 1021.1 |
| 20260901190557 | 18 | 144 | 11.3 | 27.4 | 0.00 | 0.00 | 0.00 | 29 | 1021.0 |
| 20260901185558 | 18 | 99 | 11.3 | 19.3 | 0.00 | 0.00 | 0.00 | 32 | 1021.3 |